Wetterdaten: aktuell Donnerstag, 03.09.2026 11:47
Datum Zeit Temp. A. Feuchte A. Luftdruck Regen Wind Richtung Richtung Sonnenschein Regendauer Taupunkt Windchill
03.09.2026 11:47 22,8 °C 56 % 1019,5 hPa 0,0 mm 13,8 km/h (3 Bft) NW 320 ° 5 min 0 min 13,6 °C 22,8 °C
03.09.2026 11:42 23,6 °C 56 % 1019,3 hPa 0,0 mm 8,9 km/h (2 Bft) O 80 ° 5 min 0 min 14,3 °C 23,6 °C
03.09.2026 11:37 23,0 °C 56 % 1019,5 hPa 0,0 mm 15,2 km/h (3 Bft) S 175 ° 5 min 0 min 13,7 °C 23,0 °C
03.09.2026 11:32 22,6 °C 56 % 1018,5 hPa 0,0 mm 13,4 km/h (3 Bft) N-NO 20 ° 5 min 0 min 13,4 °C 22,6 °C
03.09.2026 11:27 22,0 °C 56 % 1018,6 hPa 0,0 mm 20,0 km/h (4 Bft) NW 315 ° 5 min 0 min 12,8 °C 22,0 °C
03.09.2026 11:22 22,9 °C 55 % 1018,4 hPa 0,0 mm 24,5 km/h (4 Bft) S-SO 155 ° 7 min 0 min 13,4 °C 22,9 °C
03.09.2026 11:17 22,9 °C 56 % 1019,5 hPa 0,0 mm 14,9 km/h (3 Bft) S-SO 165 ° 4 min 0 min 13,6 °C 22,9 °C
03.09.2026 11:12 22,8 °C 55 % 1019,5 hPa 0,0 mm 8,9 km/h (2 Bft) O 95 ° 6 min 0 min 13,3 °C 22,8 °C
03.09.2026 11:07 22,2 °C 56 % 1019,6 hPa 0,0 mm 15,9 km/h (3 Bft) O-SO 105 ° 4 min 0 min 13,0 °C 22,2 °C
03.09.2026 11:02 22,0 °C 57 % 1019,6 hPa 0,0 mm 18,9 km/h (3 Bft) O-SO 115 ° 6 min 0 min 13,1 °C 22,0 °C
03.09.2026 10:57 22,0 °C 57 % 1019,6 hPa 0,0 mm 21,2 km/h (4 Bft) W-NW 285 ° 5 min 0 min 13,1 °C 22,0 °C
03.09.2026 10:52 22,4 °C 56 % 1019,6 hPa 0,0 mm 18,2 km/h (3 Bft) S-SW 200 ° 5 min 0 min 13,2 °C 22,4 °C
03.09.2026 10:47 22,2 °C 57 % 1019,6 hPa 0,0 mm 16,9 km/h (3 Bft) N-NW 345 ° 4 min 0 min 13,3 °C 22,2 °C
03.09.2026 10:42 21,4 °C 59 % 1019,7 hPa 0,0 mm 23,6 km/h (4 Bft) S-SW 195 ° 4 min 0 min 13,0 °C 21,4 °C
03.09.2026 10:37 22,3 °C 64 % 1019,6 hPa 0,0 mm 10,6 km/h (2 Bft) S 190 ° 5 min 0 min 15,2 °C 22,3 °C
03.09.2026 10:32 22,0 °C 64 % 1018,6 hPa 0,0 mm 17,4 km/h (3 Bft) S 180 ° 4 min 0 min 14,9 °C 22,0 °C
03.09.2026 10:27 21,6 °C 67 % 1018,7 hPa 0,0 mm 16,3 km/h (3 Bft) S-SO 155 ° 6 min 0 min 15,2 °C 21,6 °C
03.09.2026 10:22 21,6 °C 67 % 1018,7 hPa 0,0 mm 8,2 km/h (2 Bft) SO 135 ° 5 min 0 min 15,2 °C 21,6 °C
03.09.2026 10:17 21,0 °C 69 % 1019,8 hPa 0,0 mm 9,2 km/h (2 Bft) W-SW 245 ° 3 min 0 min 15,1 °C 21,0 °C
03.09.2026 10:12 20,6 °C 69 % 1019,9 hPa 0,0 mm 12,4 km/h (2 Bft) W-NW 295 ° 7 min 0 min 14,7 °C 20,6 °C
03.09.2026 10:07 20,9 °C 68 % 1019,8 hPa 0,0 mm 4,9 km/h (1 Bft) NO 50 ° 2 min 0 min 14,8 °C 20,9 °C
03.09.2026 10:02 20,8 °C 70 % 1019,9 hPa 0,0 mm 9,8 km/h (2 Bft) N-NO 20 ° 7 min 0 min 15,1 °C 20,8 °C
03.09.2026 09:57 20,9 °C 70 % 1019,8 hPa 0,0 mm 13,1 km/h (3 Bft) S-SO 150 ° 6 min 0 min 15,2 °C 20,9 °C
03.09.2026 09:52 20,8 °C 74 % 1019,9 hPa 0,0 mm 17,8 km/h (3 Bft) SO 145 ° 4 min 0 min 16,0 °C 20,8 °C
03.09.2026 09:47 20,2 °C 75 % 1020,0 hPa 0,0 mm 19,4 km/h (3 Bft) SO 130 ° 6 min 0 min 15,6 °C 20,2 °C
03.09.2026 09:42 20,0 °C 76 % 1020,0 hPa 0,0 mm 12,7 km/h (3 Bft) SO 135 ° 4 min 0 min 15,6 °C 20,0 °C
03.09.2026 09:37 19,6 °C 76 % 1020,1 hPa 0,0 mm 10,6 km/h (2 Bft) SO 145 ° 5 min 0 min 15,2 °C 19,6 °C
03.09.2026 09:32 19,2 °C 76 % 1020,1 hPa 0,0 mm 15,8 km/h (3 Bft) SO 140 ° 3 min 0 min 14,9 °C 19,2 °C
03.09.2026 09:27 18,9 °C 77 % 1020,2 hPa 0,0 mm 16,9 km/h (3 Bft) S-SO 165 ° 6 min 0 min 14,8 °C 18,9 °C
03.09.2026 09:22 18,5 °C 77 % 1020,3 hPa 0,0 mm 14,0 km/h (3 Bft) SO 140 ° 3 min 0 min 14,4 °C 18,5 °C
03.09.2026 09:17 18,6 °C 77 % 1020,3 hPa 0,0 mm 11,8 km/h (2 Bft) S-SO 155 ° 7 min 0 min 14,5 °C 18,6 °C
03.09.2026 09:12 18,6 °C 76 % 1020,3 hPa 0,0 mm 9,2 km/h (2 Bft) SO 140 ° 6 min 0 min 14,3 °C 18,6 °C
03.09.2026 09:07 18,6 °C 76 % 1020,3 hPa 0,0 mm 6,2 km/h (2 Bft) SO 135 ° 2 min 0 min 14,3 °C 18,6 °C
03.09.2026 09:02 18,4 °C 76 % 1020,3 hPa 0,0 mm 5,8 km/h (2 Bft) O-SO 105 ° 5 min 0 min 14,1 °C 18,4 °C
03.09.2026 08:57 18,5 °C 76 % 1020,3 hPa 0,0 mm 6,0 km/h (2 Bft) S 170 ° 5 min 0 min 14,2 °C 18,5 °C
03.09.2026 08:52 18,4 °C 76 % 1020,3 hPa 0,0 mm 1,3 km/h (1 Bft) O-SO 120 ° 5 min 0 min 14,1 °C 18,4 °C
03.09.2026 08:47 17,8 °C 76 % 1020,4 hPa 0,0 mm 2,0 km/h (1 Bft) O-SO 110 ° 6 min 0 min 13,5 °C 17,8 °C
03.09.2026 08:42 17,9 °C 77 % 1020,4 hPa 0,0 mm 2,9 km/h (1 Bft) SO 140 ° 5 min 0 min 13,8 °C 17,9 °C
03.09.2026 08:37 17,9 °C 78 % 1020,4 hPa 0,0 mm 2,9 km/h (1 Bft) O-SO 115 ° 5 min 0 min 14,0 °C 17,9 °C
03.09.2026 08:32 17,7 °C 79 % 1020,4 hPa 0,0 mm 0,0 km/h (0 Bft) SO 145 ° 5 min 0 min 14,0 °C 17,7 °C
03.09.2026 08:27 18,0 °C 77 % 1020,4 hPa 0,0 mm 0,0 km/h (0 Bft) O-SO 110 ° 5 min 0 min 13,9 °C 18,0 °C
03.09.2026 08:22 17,5 °C 79 % 1020,5 hPa 0,0 mm 0,0 km/h (0 Bft) O-NO 75 ° 5 min 0 min 13,8 °C 17,5 °C
03.09.2026 08:17 17,4 °C 79 % 1019,4 hPa 0,0 mm 0,0 km/h (0 Bft) O-NO 75 ° 5 min 0 min 13,7 °C 17,4 °C
03.09.2026 08:12 17,0 °C 81 % 1019,5 hPa 0,0 mm 0,0 km/h (0 Bft) O-SO 110 ° 5 min 0 min 13,7 °C 17,0 °C
03.09.2026 08:07 16,8 °C 80 % 1019,5 hPa 0,0 mm 0,0 km/h (0 Bft) O 90 ° 5 min 0 min 13,3 °C 16,8 °C
03.09.2026 08:02 16,3 °C 83 % 1020,7 hPa 0,0 mm 0,0 km/h (0 Bft) O 80 ° 5 min 0 min 13,4 °C 16,3 °C
03.09.2026 07:57 15,9 °C 85 % 1020,8 hPa 0,0 mm 0,0 km/h (0 Bft) O 90 ° 4 min 0 min 13,4 °C 15,9 °C
03.09.2026 07:52 15,2 °C 87 % 1020,9 hPa 0,0 mm 0,0 km/h (0 Bft) O 85 ° 4 min 0 min 13,0 °C 15,2 °C
03.09.2026 07:47 14,7 °C 87 % 1021,0 hPa 0,0 mm 0,0 km/h (0 Bft) O 90 ° 0 min 0 min 12,6 °C 14,7 °C
_ Min-Zeit 06:32 16:47 16:47 - 16:37 - - - - 17:07 06:32
Minimum _ 14,3 °C 43 % 1016,8 hPa - 0,0 km/h (0 Bft) - - - - 11,6 °C 14,3 °C
_ Max-Zeit 16:47 06:27 05:32 12:02 14:01 - - 12:02 12:02 09:52 16:47
Maximum _ 26,2 °C 88 % 1021,0 hPa 0,0 mm 27,3 km/h
S-SW (5 Bft)
- - 7 min 0 min 16,0 °C 26,2 °C
Durchschnitt _ 19,6 °C 67 % 1019,0 hPa #0,0 mm 3,7 km/h (1 Bft) NW - #3:58 h #0 min. 13,0 °C 19,6 °C